Location: Umburanas
(4.5000°S, 37.9667°W)
Time: 16:24:11
(UTC+00:00)

GPS 2-17 Rocket1 - Pass Details

Date: 19 November 2019
Orbit: 571 x 659 km, 20.3° (Epoch: 07 December)

Event Time Altitude Azimuth Distance (km) Brightness Sun altitude
Rises 20:52:49 0° 300° (WNW) 2,759 7.0 -6.8°
Reaches altitude 10° 20:55:08 10° 305° (NW) 1,870 6.0 -7.4°
Maximum altitude 20:59:23 52° 22° (NNE) 719 3.2 -8.4°
Drops below altitude 10° 21:03:45 10° 99° (E) 1,918 5.1 -9.4°
Enters shadow 21:04:05 - 100° (E) 2,046 5.2 -9.5°
